Regional Weather Roundup
Issued by NWS

Home | Current Version | Previous Version | Text Only | Print | Product List | Glossary Off
Versions: 1 2 3 4 5 6 7 8 9 10 11 12 13 14 15 16 17 18 19 20 21 22 23 24 25 26 27 28 29 30 31 32 33 34 35 36 37 38 39 40 41 42 43 44 45 46 47 48 49 50

678
ASUS43 KLOT 261503
RWRIL

ILLINOIS REGIONAL WEATHER ROUNDUP
NATIONAL WEATHER SERVICE CHICAGO/ROMEOVILLE IL
1000 AM CDT SUN MAR 26 2017

NOTE: "FAIR" INDICATES FEW OR NO CLOUDS BELOW 12,000 FEET WITH NO
SIGNIFICANT WEATHER AND/OR OBSTRUCTIONS TO VISIBILITY.

* THESE STATIONS ARE NOT UNDER NWS QUALITY CONTROL. THEY ALSO MAY NOT
  REPORT WEATHER SUCH AS PRECIPITATION OR FOG.

ILZ001-002-007-009-015-016-024-261600-
NORTHWEST ILLINOIS

CITY           SKY/WX    TMP DP  RH WIND       PRES   REMARKS
MOLINE         CLOUDY    54  53  97 SW7       29.81S
STERLING*      CLOUDY    55  52  89 S7        29.83S
SAVANNA*       CLOUDY    49  49  99 NE5       29.83S FOG
$$

ILZ003-004-008-010-011-017-018-261600-
NORTH CENTRAL ILLINOIS

CITY           SKY/WX    TMP DP  RH WIND       PRES   REMARKS
ROCKFORD       CLOUDY    49  47  93 E3        29.86S FOG
FREEPORT*      FOG       46  45  99 E6        29.85S VSB 1/4
ROCHELLE*      CLOUDY    55  54  95 SW7       29.84S
DE KALB*       CLOUDY    55  55  99 S8        29.84F FOG
PERU*          CLOUDY    55  51  87 SW9       29.84S
$$

ILZ005-006-012>014-019>023-261600-
NORTHEAST ILLINOIS

CITY           SKY/WX    TMP DP  RH WIND       PRES   REMARKS
CHICAGO-OHARE  CLOUDY    55  52  89 S9        29.84S FOG
CHICAGO-MIDWAY LGT RAIN  55  54  96 S8        29.85S FOG
AURORA         CLOUDY    57  54  89 S7        29.84S
LANSING*       DRIZZLE   55  55 100 SE8       29.86F
JOLIET*        CLOUDY    59  57  96 S7        29.85S
WAUKEGAN       RAIN      44  44 100 SE5       29.85F VSB 1
DUPAGE AIRPORT LGT RAIN  52  52 100 CALM      29.84S VSB 3/4
WHEELING       LGT RAIN  51  51 100 SE6       29.85S FOG
MORRIS*        CLOUDY    57  54  91 S6        29.84S
$$

LMZ740>746-261600-
SOUTHERN LAKE MICHIGAN

STATION/POSITION SKY/WX   TEMP    WIND        PRES    VSBY  WAVE
                          AIR SEA DIR/SP/G                  HT/PER
                          (F)     (DEG/KT/KT) (MB)    (MI)  (FT/S)
HARRISON CRIB              45     170/  9/ 10   N/A
BURNHAM HARBOR             45      CALM  /  4   N/A
CALUMET HARBOR             54     150/  8/ 13 1010.5F
BURNS HARBOR               55     170/  8/ 12 1011.9F
MICHIGAN CITY              52     140/  8/  9   N/A
$$

ILZ025>027-034>036-040-047-049-050-058-095>099-261600-
WEST-CENTRAL ILLINOIS

CITY           SKY/WX    TMP DP  RH WIND       PRES   REMARKS
QUINCY         CLOUDY    48  46  93 W12       29.86R
GALESBURG*     CLOUDY    51  51 100 S9        29.82S FOG
MACOMB*        CLOUDY    49  49  99 SW12      29.86R
JACKSONVILLE*  CLOUDY    51  49  93 SW13      29.87R
PITTSFIELD*    CLOUDY    50  49  95 SW10      29.88R
$$

ILZ028>032-037-038-041>044-048-051>054-059>061-261600-
CENTRAL ILLINOIS

CITY           SKY/WX    TMP DP  RH WIND       PRES   REMARKS
PONTIAC        CLOUDY    58  56  94 S12       29.86S
BLOOMINGTON    CLOUDY    53  50  89 SW16      29.86S
DECATUR        CLOUDY    55  50  83 SW13      29.88S
PEORIA         CLOUDY    52  51  97 S13       29.85R
SPRINGFIELD    CLOUDY    53  49  86 SW9       29.88R
TAYLORVILLE    NOT AVBL
$$

ILZ033-039-045-046-055>057-062-063-261600-
EAST-CENTRAL ILLINOIS

CITY           SKY/WX    TMP DP  RH WIND       PRES   REMARKS
CHAMPAIGN      CLOUDY    61  53  75 SW14      29.87S
RANTOUL*       CLOUDY    61  56  83 SW13      29.87S
MATTOON        LGT RAIN  56  54  93 S10       29.88S
$$

ILZ079-100>102-261600-
SOUTHWEST ILLINOIS

CITY           SKY/WX    TMP DP  RH WIND       PRES   REMARKS
ALTON          CLOUDY    52  46  82 SW9       29.91S
BELLEVILLE     PTSUNNY   53  51  92 SW10      29.91R
CAHOKIA*       CLOUDY    53  46  77 SW6       29.91S
SPARTA*        CLOUDY    51  46  81 SW9       29.94R
$$

ILZ064>066-069>071-074>076-080>082-084>086-088>090-092>094-261600-
SOUTH-CENTRAL ILLINOIS

CITY           SKY/WX    TMP DP  RH WIND       PRES   REMARKS
CARBONDALE     CLOUDY    54  49  83 SW12      29.94R
CAIRO*         CLOUDY    54  50  86 SW8       29.97R
EFFINGHAM*     CLOUDY    58  55  89 S12       29.91S
MARION         CLOUDY    55  54  94 SW7       29.95S
MT. VERNON     CLOUDY    55  51  86 SW15      29.93R
CENTRALIA*     CLOUDY    56  53  91 S12       29.91R
SALEM*         CLOUDY    57  53  84 SW10      29.91R
$$

ILZ067-068-072-073-078-083-087-091-261600-
SOUTHEAST ILLINOIS

CITY           SKY/WX    TMP DP  RH WIND       PRES   REMARKS
LAWRENCEVILLE  CLOUDY    59  57  93 S13       29.92S
FLORA*         CLOUDY    59  54  83 S15       29.92S
FAIRFIELD*     CLOUDY    57  54  89 S7        29.92R
HARRISBURG*    CLOUDY    56  54  93 SW8       29.95R
ROBINSON*      CLOUDY    58  54  89 SW14      29.92S
CARMI*         DRIZZLE   57  56  96 S12       29.94R
$$

ABBREVIATIONS USED IN REMARKS
   TC - TEMPERATURE IN CELSIUS
  WCI - WIND CHILL INDEX
   HX - HEAT INDEX
  VSB - VISIBILITY
$$





USA.gov is the U.S. government's official web portal to all federal, state and local government web resources and services.